Location: Bishopstone
(51.0167°N, 1.9000°W)
Time: 18:56:17
(UTC+00:00)

NOSS 3-4 (C) - Pass Details

Date: 16 September 2019
Orbit: 913 x 1299 km, 63.4° (Epoch: 17 October)

Event Time Altitude Azimuth Distance (km) Brightness Sun altitude
Rises 19:26:10 0° 314° (NW) 3,785 7.8 -11.0°
Reaches altitude 10° 19:28:41 10° 316° (NW) 2,881 7.0 -11.3°
Maximum altitude 19:35:35 82° 45° (NE) 1,147 3.8 -12.4°
Enters shadow 19:42:08 15° 133° (SE) 2,794 5.3 -13.3°
